Regional Weather Roundup
Issued by NWS

Home | Current Version | Previous Version | Graphics & Text | Print | Product List | Glossary On
Versions: 1 2 3 4 5 6 7 8 9 10 11 12 13 14 15 16 17 18 19 20 21 22 23 24 25 26 27 28 29 30 31 32 33 34 35 36 37 38 39 40 41 42 43 44 45 46 47 48 49 50
302
ASUS43 KLSX 250207
RWRMO

WEATHER SUMMARY FOR MISSOURI
NATIONAL WEATHER SERVICE SPRINGFIELD MO
900 PM CDT MON APR 24 2017

NOTE: "FAIR" INDICATES FEW OR NO CLOUDS BELOW 12,000 FEET WITH NO
       SIGNIFICANT WEATHER AND/OR OBSTRUCTIONS TO VISIBILITY.
       CURRENT SKY AND/OR WEATHER CONDITIONS ARE NOT AVAILABLE FOR
       CHILLICOTHE AND FARMINGTON.

MOZ001>031-035>038-043-044-053-054-250300-
...NORTHERN AND WESTERN MISSOURI...

CITY           SKY/WX    TMP DP  RH WIND       PRES   REMARKS
KANSAS CTY INT CLOUDY    60  42  51 S10       29.61R
KANSAS C DTWN  CLOUDY    68  40  35 S8        29.61R
LEE`S SUMMIT   CLOUDY    65  41  41 S7        29.63R
ST JOSEPH      PTCLDY    65  43  44 S9        29.59R
CHILLICOTHE      N/A     66  32  28 S6        29.63R
KIRKSVILLE     CLEAR     57  32  38 SE7       29.65R

$$
MOZ066>068-077>081-088>096-101>105-250300-
...SOUTHWEST MISSOURI...

CITY           SKY/WX    TMP DP  RH WIND       PRES   REMARKS
SPRINGFIELD    CLEAR     62  37  39 SE9       29.67R
JOPLIN         CLOUDY    66  42  41 S6        29.65R
BRANSON        PTCLDY    64  32  29 S8        29.70S

$$
MOZ032>034-039>042-045>050-055>058-069>072-250300-
...CENTRAL MISSOURI...

CITY           SKY/WX    TMP DP  RH WIND       PRES   REMARKS
COLUMBIA       CLEAR     64  36  35 SE8       29.66R
JEFFERSON CITY CLEAR     70  33  25 SE5       29.65R
ROLLA          CLEAR     64  33  31 SE10      29.67S
SEDALIA        PTCLDY    61  37  41 S10       29.66R
WHITEMAN AFB   PTCLDY    63  37  38 SE5       29.62R
OSAGE BEACH    CLEAR     66  38  35 S6        29.68R

$$
MOZ051-052-059>065-250300-
...EAST CENTRAL MISSOURI...

CITY           SKY/WX    TMP DP  RH WIND       PRES   REMARKS
ST LOUIS INTL  PTCLDY    69  37  30 SE8       29.71F
SPIRIT OF STL  CLEAR     66  40  38 SE5       29.69S
ST CHARLES     CLEAR     62  35  36 SE8       29.69F

$$
MOZ072>076-082>087-097>100-106>115-250300-
...SOUTH CENTRAL AND SOUTHEAST MISSOURI...

CITY           SKY/WX    TMP DP  RH WIND       PRES   REMARKS
CAPE GIRARDEAU CLEAR     58  52  80 CALM      29.73S
FARMINGTON     CLEAR     60  42  51 SE6       29.73F
POPLAR BLUFF   CLEAR     64  57  78 SE5       29.73F
WEST PLAINS    CLEAR     62  37  39 S5        29.73S

$$



USA.gov is the U.S. government's official web portal to all federal, state and local government web resources and services.